Cheyenne, WY

4:10 PM MDT on May 22, 2018 (GMT -0600)
Cheyenne

Weather History for KCYS - May, 2013

Change the Weather History Date:

Tuesday, May 28, 2013

  Actual Average Record
Temperature  
Mean Temperature 59 °F 56 °F  
Max Temperature 76 °F 68 °F 88 °F (2000)
Min Temperature 42 °F 44 °F 22 °F (1947)
Degree Days  
Heating Degree Days 6 9  
Month to date heating degree days 350 365  
Since 1 July heating degree days 7084 6950  
Cooling Degree Days 0 0  
Month to date cooling degree days 6 0  
Year to date cooling degree days 6 0  
Growing Degree Days 8 (Base 50)    
Moisture  
Dew Point 38 °F    
Average Humidity 50    
Maximum Humidity 77    
Minimum Humidity 23    
Precipitation  
Precipitation 0.00 in 0.09 in 1.08 in (1975)
Month to date precipitation 0.70 2.08  
Year to date precipitation 5.18 5.71  
Snow  
Snow 0.00 in 0.00 in 3.20 in (1947)
Month to date snowfall 4.3 2.2  
Since 1 July snowfall 87.1 60.2  
Snow Depth 0.00 in    
Sea Level Pressure  
Sea Level Pressure 29.59 in    
Wind  
Wind Speed 12 mph (NNW)    
Max Wind Speed 24 mph    
Max Gust Speed 30 mph    
Visibility 10 miles    
Events      
T = Trace of Precipitation, MM = Missing Value Source: NWS Daily Summary

Daily Weather History Graph

Daily Weather History Graph

Search for Another Location

Airport or City:

Astronomy

May. 28, 2013 Rise Set
Actual Time 5:30 AM MDT 8:22 PM MDT
Civil Twilight 4:58 AM MDT 8:55 PM MDT
Nautical Twilight 4:16 AM MDT 9:36 PM MDT
Astronomical Twilight 3:29 AM MDT 10:24 PM MDT
Moon 11:46 PM MDT (5/28) 9:22 AM MDT (5/28)
Length of Visible Light 15h 57m
Length of Day
14h 52m
Waning Gibbous, 82% of the Moon is Illuminated
May 28
Waning Gibbous
May 31
Last Quarter
Jun 8
New
Jun 16
First Quarter
Jun 23
Full

Hourly Weather History & Observations

Time (MDT) Temp. Windchill Dew Point Humidity Pressure Visibility Wind Dir Wind Speed Gust Speed Precip Events Conditions
12:53 AM 55.0 °F - 28.9 °F 37% 29.65 in 10.0 mi North 15.0 mph 20.7 mph N/A   Clear
1:53 AM 48.9 °F - 37.9 °F 66% 29.68 in 10.0 mi NNW 9.2 mph - N/A   Clear
2:53 AM 46.9 °F - 36.0 °F 66% 29.69 in 10.0 mi North 9.2 mph - N/A   Clear
3:53 AM 46.9 °F - 33.1 °F 59% 29.70 in 10.0 mi NW 11.5 mph - N/A   Clear
4:53 AM 45.0 °F 41.8 °F 33.1 °F 63% 29.70 in 10.0 mi NW 5.8 mph - N/A   Clear
5:53 AM 42.1 °F 39.2 °F 33.1 °F 70% 29.70 in 10.0 mi NW 4.6 mph - N/A   Clear
6:53 AM 46.9 °F - 35.1 °F 63% 29.68 in 10.0 mi NW 4.6 mph - N/A   Clear
7:53 AM 53.1 °F - 36.0 °F 52% 29.66 in 10.0 mi Variable 3.5 mph - N/A   Clear
8:53 AM 57.9 °F - 37.9 °F 47% 29.64 in 10.0 mi ESE 9.2 mph - N/A   Clear
9:53 AM 62.1 °F - 39.0 °F 43% 29.63 in 10.0 mi South 12.7 mph 19.6 mph N/A   Clear
10:53 AM 64.0 °F - 39.9 °F 41% 29.63 in 10.0 mi South 12.7 mph 21.9 mph N/A   Clear
11:53 AM 68.0 °F - 39.9 °F 36% 29.60 in 10.0 mi South 17.3 mph 23.0 mph N/A   Clear
12:53 PM 68.0 °F - 39.0 °F 35% 29.55 in 10.0 mi South 19.6 mph 29.9 mph N/A   Clear
1:53 PM 68.0 °F - 39.0 °F 35% 29.56 in 10.0 mi South 17.3 mph 25.3 mph N/A   Clear
2:53 PM 70.0 °F - 37.0 °F 30% 29.54 in 10.0 mi South 18.4 mph 25.3 mph N/A   Clear
3:53 PM 73.9 °F - 35.1 °F 24% 29.48 in 10.0 mi South 19.6 mph 26.5 mph N/A   Clear
4:53 PM 75.0 °F - 35.1 °F 23% 29.47 in 10.0 mi South 16.1 mph - N/A   Clear
5:53 PM 71.1 °F - 32.0 °F 24% 29.47 in 10.0 mi South 17.3 mph 28.8 mph N/A   Scattered Clouds
6:53 PM 69.1 °F - 30.9 °F 24% 29.48 in 10.0 mi NNW 11.5 mph - N/A   Partly Cloudy
7:16 PM 62.6 °F - 44.6 °F 52% 29.68 in 10.0 mi NE 16.1 mph 27.6 mph N/A   Partly Cloudy
7:53 PM 59.0 °F - 46.9 °F 64% 29.49 in 10.0 mi NNE 13.8 mph 24.2 mph N/A   Scattered Clouds
8:53 PM 55.9 °F - 46.0 °F 69% 29.52 in 10.0 mi North 11.5 mph - N/A   Partly Cloudy
9:53 PM 53.1 °F - 46.0 °F 77% 29.56 in 10.0 mi NNW 10.4 mph 19.6 mph N/A   Scattered Clouds
10:53 PM 52.0 °F - 45.0 °F 77% 29.57 in 10.0 mi NNE 10.4 mph - N/A   Clear
11:53 PM 52.0 °F - 45.0 °F 77% 29.50 in 10.0 mi North 9.2 mph - N/A   Scattered Clouds